[[{"header":{"parameterUnit":"m.s-1","parameterCategory":1,"la1":30.2991,"la2":30.254,"lo1":-89.0895,"lo2":-89.0444,"dy":0.0017,"dx":0.0017,"nx":28,"ny":28,"refTime":"2024-03-22T21:00:00:Z","depth":0,"parameterNumber":2,"parameterNumberName":"U-component_of_WINDS"},"data":[0,0,0,0,0,0,0,0,0,0,0,0,0,0,0,0,0,0,0,0,0,0,0,0,0,0,0,0,0,0,0,0,0,0,0,0,0,0,0,0,0,0,0,0,0,0,0,0,0,0,0,0,0,0,0,0,0,0,-2.063,-2.0632,0,-2.0771,-2.0772,-2.0774,-2.0807,-2.0806,-2.0805,-2.0804,-2.0952,-2.0957,-2.0962,0,0,0,0,0,0,0,0,0,0,0,0,0,-2.0398,-2.0402,-2.063,-2.0632,-2.0634,-2.077,-2.0772,-2.0774,-2.0807,-2.0806,-2.0804,-2.0803,-2.0951,-2.0956,-2.0962,0,0,0,0,0,0,0,0,0,0,0,0,0,-2.0515,-2.0404,-2.063,-2.0666,-2.0671,-2.077,-2.0772,-2.0775,-2.0807,-2.0806,-2.0804,-2.0803,-2.0949,-2.0956,-2.0963,-2.1037,0,0,-2.0985,-2.0988,0,0,0,0,0,0,0,0,-2.0508,-2.0523,-2.0659,-2.0664,-2.0669,-2.0769,-2.0745,-2.0863,-2.0807,-2.0756,-2.0804,-2.0802,-2.0893,-2.0905,-2.0934,-2.1044,-2.105,-2.0986,-2.099,-2.0993,-2.0996,0,0,0,0,0,0,0,-2.05,-2.0518,-2.0686,-2.0661,-2.0667,-2.0678,-2.0693,-2.0767,-2.0831,-2.076,-2.0763,-2.0779,-2.0896,-2.0927,-2.0938,-2.1053,-2.0986,-2.0992,-2.0997,-2.1,-2.1234,-2.1236,0,0,0,0,0,0,-2.0485,-2.0511,-2.0681,-2.069,-2.0583,-2.0684,-2.07,-2.0739,-2.083,-2.0842,-2.078,-2.078,-2.0916,-2.093,-2.0943,-2.1037,-2.0993,-2.1,-2.1004,-2.1232,-2.1235,-2.1237,0,0,0,0,0,0,-2.048,-2.05,-2.0676,-2.0601,-2.0624,-2.0689,-2.0732,-2.0742,-2.0774,-2.0845,-2.0857,-2.08,-2.0915,-2.0933,-2.1014,-2.1043,-2.1004,-2.101,-2.123,-2.1233,-2.1236,-2.1225,0,0,0,0,0,0,-2.0473,-2.0498,-2.0524,-2.0601,-2.0628,-2.0741,-2.0734,-2.0746,-2.0786,-2.0787,-2.0867,-2.0879,-2.0915,-2.1003,-2.1021,-2.1052,-2.1016,-2.1228,-2.1231,-2.1235,-2.1223,-2.1227,-2.123,0,0,0,0,0,-2.0464,-2.0516,-2.0525,-2.0546,-2.0662,-2.0743,-2.0758,-2.0797,-2.0788,-2.0817,-2.0863,-2.0876,-2.1038,-2.1011,-2.1032,-2.1065,-2.1226,-2.123,-2.1234,-2.1221,-2.1226,-2.123,0,0,0,0,0,0,-2.0441,-2.0526,-2.0538,-2.0615,-2.0671,-2.0748,-2.0785,-2.0801,-2.0862,-2.0861,-2.0909,-2.0927,-2.1005,-2.1044,-2.1013,-2.1144,-2.1132,-2.1141,-2.1115,-2.112,-2.1124,-2.1112,-2.1022,0,0,0,0,0,-2.0444,-2.05,-2.0573,-2.0635,-2.0663,-2.0719,-2.0756,-2.0781,-2.0842,-2.0866,-2.0918,-2.0978,-2.1043,-2.1084,-2.1147,-2.123,-2.1249,-2.1264,-2.1268,-2.1271,-2.1277,-2.1326,-2.1334,-2.125,-2.125,-2.125,0,0,-2.0453,-2.0507,-2.0539,-2.0632,-2.0678,-2.0737,-2.0739,-2.0801,-2.0846,-2.0876,-2.0955,-2.0996,-2.1067,-2.1149,-2.1188,-2.1184,-2.1305,-2.1276,-2.1277,-2.1282,-2.1331,-2.1339,-2.1346,-2.1253,-2.1253,-2.1252,0,0,-2.0497,-2.0544,-2.06,-2.0648,-2.0718,-2.0756,-2.077,-2.0846,-2.0873,-2.0954,-2.0978,-2.1035,-2.1144,-2.1194,-2.1234,-2.1303,-2.1319,-2.1323,-2.1342,-2.1389,-2.1396,-2.1402,-2.1427,-2.1436,-2.133,-2.133,-2.133,0,-2.0499,-2.0587,-2.0628,-2.069,-2.0731,-2.0762,-2.0821,-2.0866,-2.0954,-2.0983,-2.0977,-2.1117,-2.1167,-2.1263,-2.128,-2.1311,-2.1331,-2.1312,-2.1391,-2.1398,-2.1404,-2.1429,-2.1438,-2.133,-2.133,-2.133,-2.133,0,-2.0586,-2.0647,-2.0685,-2.0769,-2.0815,-2.0875,-2.0928,-2.0971,-2.0994,-2.1034,-2.1118,-2.1179,-2.1256,-2.1282,-2.1305,-2.1382,-2.1378,-2.1381,-2.137,-2.1411,-2.1436,-2.1445,-2.133,-2.133,-2.133,-2.133,0,0,-2.0615,-2.0723,-2.0737,-2.0776,-2.0858,-2.0908,-2.0972,-2.1047,-2.1082,-2.1144,-2.12,-2.1295,-2.1299,-2.1345,-2.1375,-2.1417,-2.147,-2.1416,-2.1419,-2.1424,-2.1561,-2.1556,-2.1566,-2.1482,-2.1484,-2.1485,-2.1555,0,-2.0669,-2.0781,-2.0823,-2.0916,-2.0974,-2.1007,-2.1064,-2.1122,-2.1162,-2.122,-2.1266,-2.1332,-2.1333,-2.1361,-2.1404,-2.1454,-2.1498,-2.145,-2.1536,-2.1538,-2.1515,-2.1578,-2.1573,-2.1635,-2.1564,-2.1566,-2.1567,0,-2.0746,-2.0808,-2.0906,-2.0984,-2.1011,-2.106,-2.1133,-2.1188,-2.1257,-2.1283,-2.1336,-2.1364,-2.1436,-2.1423,-2.1524,-2.149,-2.1529,-2.156,-2.1563,-2.1571,-2.1553,-2.1587,-2.1655,-2.1664,-2.1582,-2.1581,-2.158,0,-2.0757,-2.0866,-2.0939,-2.0972,-2.1065,-2.1099,-2.114,-2.1207,-2.1251,-2.1317,-2.1346,-2.142,-2.146,-2.1518,-2.1567,-2.1553,-2.1665,-2.1655,-2.169,-2.1689,-2.171,-2.1707,-2.1784,-2.1737,-2.1737,-2.1737,-2.1737,0,-2.0812,-2.0871,-2.0945,-2.099,-2.1059,-2.1109,-2.1176,-2.1219,-2.128,-2.1336,-2.1371,-2.1424,-2.1486,-2.1548,-2.1588,-2.1666,-2.1685,-2.171,-2.1719,-2.1706,-2.1702,-2.173,-2.1726,-2.174,-2.1739,-2.1738,-2.1738,0,-2.0834,-2.0886,-2.0969,-2.1051,-2.1073,-2.112,-2.1192,-2.1239,-2.1282,-2.1353,-2.1373,-2.1442,-2.1517,-2.1573,-2.1671,-2.1698,-2.1782,-2.1792,-2.1757,-2.1762,-2.1794,-2.179,-2.189,-2.1906,-2.1849,-2.185,-2.185,0,-2.0865,-2.0911,-2.0999,-2.1038,-2.1078,-2.1142,-2.1187,-2.124,-2.1285,-2.137,-2.1407,-2.1484,-2.1548,-2.1668,-2.1728,-2.1804,-2.1816,-2.1847,-2.1828,-2.1814,-2.1817,-2.1812,-2.1818,-2.1848,-2.1848,-2.1849,-2.1849,0,-2.0913,-2.0938,-2.1,-2.1072,-2.1125,-2.1184,-2.1245,-2.1276,-2.1341,-2.1392,-2.1468,-2.1518,-2.1619,-2.1696,-2.1779,-2.1824,-2.1848,-2.1855,-2.1867,-2.1852,-2.183,-2.1843,-2.1763,-2.1851,-2.1851,-2.1851,-2.1851,-2.1851,-2.0941,-2.0984,-2.1053,-2.1122,-2.1174,-2.123,-2.1279,-2.1329,-2.1393,-2.1478,-2.1507,-2.1586,-2.1659,-2.1772,-2.182,-2.1885,-2.1885,-2.1902,-2.1906,-2.1909,-2.1908,-2.1821,-2.19,-2.1901,-2.1901,-2.1901,-2.1901,0,-2.099,-2.1037,-2.1101,-2.1184,-2.124,-2.1258,-2.1327,-2.1373,-2.1442,-2.1507,-2.157,-2.166,-2.1737,-2.1805,-2.1885,-2.1925,-2.1938,-2.1944,-2.1941,-2.1951,-2.1904,-2.1885,-2.1932,-2.1932,-2.1932,-2.1932,-2.1932,-2.1932,-2.1023,-2.1097,-2.1131,-2.1233,-2.1281,-2.1357,-2.1396,-2.145,-2.1502,-2.1601,-2.1664,-2.1708,-2.1775,-2.1862,-2.1934,-2.1953,-2.198,-2.1983,-2.2005,-2.1958,-2.1954,-2.1951,-2.1933,-2.1989,-2.1989,-2.2047,-2.2047,-2.2047]},{"header":{"parameterUnit":"m.s-1","parameterCategory":1,"la1":30.2991,"la2":30.254,"lo1":-89.0895,"lo2":-89.0444,"dy":0.0017,"dx":0.0017,"nx":28,"ny":28,"refTime":"2024-03-22T21:00:00:Z","depth":0,"parameterNumber":3,"parameterNumberName":"V-component_of_WINDS"},"data":[0,0,0,0,0,0,0,0,0,0,0,0,0,0,0,0,0,0,0,0,0,0,0,0,0,0,0,0,0,0,0,0,0,0,0,0,0,0,0,0,0,0,0,0,0,0,0,0,0,0,0,0,0,0,0,0,0,0,3.6917,3.6917,0,3.6917,3.6917,3.6917,3.6904,3.6903,3.6903,3.6903,3.6902,3.6902,3.6902,0,0,0,0,0,0,0,0,0,0,0,0,0,3.6903,3.6903,3.6917,3.6917,3.6917,3.6917,3.6917,3.6917,3.6904,3.6903,3.6903,3.6903,3.6902,3.6902,3.6902,0,0,0,0,0,0,0,0,0,0,0,0,0,3.6907,3.6903,3.6917,3.691,3.6909,3.6917,3.6917,3.6917,3.6904,3.6903,3.6903,3.6902,3.6902,3.6902,3.6902,3.6916,0,0,3.6904,3.6904,0,0,0,0,0,0,0,0,3.6907,3.6907,3.6911,3.691,3.691,3.691,3.6912,3.6917,3.6904,3.6906,3.6903,3.6902,3.6905,3.6905,3.6906,3.6916,3.6916,3.6904,3.6904,3.6904,3.6904,0,0,0,0,0,0,0,3.6906,3.6907,3.6917,3.6911,3.691,3.6907,3.6907,3.6913,3.6908,3.6906,3.6905,3.6905,3.6904,3.6906,3.6906,3.6916,3.6904,3.6904,3.6905,3.6905,3.6938,3.6938,0,0,0,0,0,0,3.6907,3.6907,3.6917,3.6917,3.6907,3.6907,3.6907,3.691,3.6908,3.6907,3.6906,3.6904,3.6905,3.6906,3.6906,3.6922,3.6904,3.6905,3.6905,3.6937,3.6938,3.6939,0,0,0,0,0,0,3.6907,3.6908,3.6917,3.6912,3.6913,3.6908,3.6912,3.6911,3.6912,3.6908,3.6907,3.6908,3.6905,3.6905,3.6914,3.6922,3.6905,3.6905,3.6936,3.6937,3.6938,3.6955,0,0,0,0,0,0,3.6907,3.6908,3.6913,3.6912,3.6913,3.6925,3.6912,3.6911,3.6913,3.6912,3.691,3.6909,3.6904,3.6913,3.6914,3.6922,3.6906,3.6936,3.6937,3.6938,3.6954,3.6956,3.6959,0,0,0,0,0,3.6906,3.6917,3.6914,3.6915,3.6919,3.6925,3.6926,3.6921,3.6914,3.6919,3.6917,3.6909,3.6921,3.6914,3.6915,3.6924,3.6935,3.6937,3.6938,3.6952,3.6956,3.6958,0,0,0,0,0,0,3.6919,3.6917,3.6913,3.6924,3.6925,3.6923,3.6929,3.6924,3.6927,3.6925,3.6918,3.6918,3.6928,3.6926,3.6919,3.6937,3.6927,3.6928,3.6938,3.6941,3.6943,3.6943,3.6906,0,0,0,0,0,3.6923,3.6929,3.6927,3.6937,3.6938,3.6934,3.6936,3.6932,3.6932,3.6933,3.6931,3.6931,3.6935,3.6938,3.6941,3.6953,3.6953,3.696,3.6962,3.6964,3.6966,3.6973,3.6976,3.6943,3.6943,3.6943,0,0,3.6932,3.6931,3.6935,3.6939,3.694,3.6946,3.6934,3.694,3.6944,3.6933,3.6942,3.6941,3.6941,3.6951,3.6956,3.6951,3.6975,3.6966,3.6968,3.6968,3.6975,3.6978,3.6981,3.6944,3.6944,3.6944,0,0,3.6951,3.6951,3.696,3.6961,3.6962,3.6959,3.6961,3.6961,3.696,3.6968,3.696,3.6965,3.6971,3.6972,3.6973,3.6994,3.6987,3.6995,3.7008,3.7015,3.7018,3.702,3.7028,3.7031,3.6997,3.6997,3.6997,0,3.6961,3.697,3.6965,3.6972,3.6975,3.6966,3.6975,3.6976,3.6978,3.6979,3.6973,3.6982,3.6982,3.6993,3.6998,3.6999,3.7002,3.6995,3.7018,3.702,3.7022,3.703,3.7033,3.6998,3.6997,3.6997,3.6997,0,3.6983,3.6989,3.6996,3.7,3.7003,3.7011,3.7007,3.701,3.7006,3.7004,3.7014,3.7013,3.7016,3.7018,3.7014,3.7029,3.7026,3.7019,3.7009,3.7027,3.7033,3.7036,3.6999,3.6999,3.6998,3.6998,0,0,3.7009,3.7011,3.7013,3.7015,3.7016,3.7021,3.7029,3.7033,3.7036,3.7038,3.7045,3.7051,3.7045,3.7047,3.7042,3.7049,3.7066,3.7041,3.7041,3.7046,3.7083,3.7089,3.7092,3.7062,3.7062,3.7062,3.7084,0,3.7028,3.7043,3.7039,3.7053,3.7059,3.7051,3.7058,3.706,3.7058,3.7063,3.7061,3.7066,3.7057,3.7058,3.7064,3.7062,3.7073,3.7061,3.7068,3.7068,3.7069,3.7096,3.7102,3.7122,3.7086,3.7087,3.7087,0,3.7052,3.7056,3.7071,3.7072,3.7075,3.7081,3.7085,3.709,3.7091,3.709,3.7092,3.7087,3.7095,3.7084,3.7095,3.7087,3.7089,3.7089,3.709,3.709,3.7079,3.7098,3.7128,3.7131,3.7091,3.7091,3.709,0,3.7071,3.708,3.709,3.7092,3.7093,3.7098,3.7099,3.71,3.7103,3.7106,3.7108,3.7112,3.7114,3.7117,3.7113,3.7106,3.7125,3.7114,3.7124,3.7125,3.7129,3.7129,3.716,3.713,3.713,3.713,3.713,0,3.7093,3.7102,3.7099,3.7105,3.7116,3.7112,3.7122,3.7122,3.7123,3.7129,3.7122,3.7128,3.7123,3.7128,3.7125,3.7135,3.7135,3.7135,3.7134,3.7136,3.7136,3.7137,3.7136,3.713,3.713,3.713,3.713,0,3.7115,3.7113,3.7125,3.7125,3.7126,3.7134,3.7134,3.714,3.7139,3.7147,3.7148,3.7146,3.7152,3.7148,3.7154,3.7152,3.7165,3.7162,3.7165,3.7164,3.7175,3.7174,3.7209,3.7214,3.718,3.718,3.718,0,3.713,3.7137,3.7139,3.7144,3.7145,3.7151,3.7155,3.7151,3.7155,3.7158,3.7163,3.7169,3.7173,3.7183,3.7182,3.7187,3.7184,3.7196,3.7184,3.7186,3.7185,3.7185,3.7186,3.7198,3.7198,3.7199,3.7199,0,3.7156,3.7155,3.716,3.7166,3.7171,3.7175,3.7178,3.7182,3.7178,3.7182,3.7189,3.7193,3.7199,3.7205,3.7209,3.7209,3.7204,3.7203,3.7205,3.7208,3.7209,3.7209,3.7172,3.7202,3.7202,3.7201,3.7201,3.7201,3.7175,3.7182,3.7185,3.7192,3.7194,3.7198,3.7204,3.7204,3.7209,3.7215,3.7212,3.722,3.7222,3.7227,3.7228,3.7234,3.7229,3.7233,3.7234,3.7235,3.7237,3.7208,3.7235,3.7235,3.7234,3.7234,3.7234,0,3.7202,3.7204,3.721,3.7216,3.7221,3.7216,3.7219,3.7224,3.7232,3.7234,3.7239,3.7247,3.7253,3.7252,3.7257,3.7263,3.726,3.7264,3.7264,3.7264,3.7241,3.7238,3.7266,3.7266,3.7266,3.7266,3.7266,3.7266,3.7216,3.7228,3.7227,3.724,3.7241,3.725,3.7253,3.7256,3.7258,3.7268,3.7273,3.7273,3.7274,3.728,3.7285,3.7284,3.7287,3.7292,3.7291,3.7269,3.7266,3.7263,3.7261,3.7293,3.7293,3.7314,3.7314,3.7314]}]]